Rovaniemi (Finland)  www.meteorete.it

situazione meteo Attuale :05:01:39
Temperatura : 9.2
Umidita :71.6 %
Pressione :997.5 hPa
Vel vento :2.8 Km
Direz. :E
Precip.(mm.):0.0
   

Condizioni Meteo per: Rovaniemi, Finland

aggiornamento precedente: 24.06.2017 20:23
prossimo aggiornamento: 25.06.2017 04:00
Latitude: 66.5° N
Longitude: 25.72° E
Altitude: 102 m

hPa
mm °C
    Temperatura Precipitazioni Pressione vento Umidità Nuvoloso Nebbia
Keskiyön aurinko OGGI
06:00   997.5 hPa 2.8 m/s 72% 85%
08:00   996.5 hPa 3.3 m/s 55% 78%
10:00   995.6 hPa 4.2 m/s 50% 95%
12:00   995.3 hPa 4.4 m/s 63% 100%
14:00   994.3 hPa 4.6 m/s 52% 100%
16:00 0.3 mm 994.3 hPa 3.7 m/s 75% 100%
18:00   993.6 hPa 3.1 m/s 75% 100%
20:00 2.4 mm 993.5 hPa 1.3 m/s 91% 100%
22:00 0.6 mm 992.7 hPa 2.7 m/s 94% 100%
Keskiyön aurinko DOMANI
00:00 0.5 mm 992.1 hPa 2.7 m/s 95% 100%
02:00 0.7 mm 991.5 hPa 2.4 m/s 96% 100%
04:00 0.5 mm 990.8 hPa 2.6 m/s 95% 100%
06:00 0.6 mm 990.3 hPa 2.2 m/s 96% 100%
08:00   990.2 hPa 1.9 m/s 97% 100% 1%
10:00   990.1 hPa 2.5 m/s 93% 100%
12:00   990.2 hPa 1.8 m/s 92% 97%
14:00   990.0 hPa 1.2 m/s 74% 90%
16:00 0.3 mm 990.1 hPa 3.3 m/s 93% 97%
18:00 0.4 mm 990.1 hPa 3.1 m/s 90% 100%
20:00 1.1 mm 990.5 hPa 1.2 m/s 95% 97%
22:00   990.9 hPa 0.8 m/s 92% 84%
Keskiyön aurinko Martedi 27.06.2017
00:00   990.9 hPa 0.7 m/s 93% 55%
02:00   991.4 hPa 2.3 m/s 96% 99%
04:00   991.9 hPa 2.4 m/s 95% 91%
06:00   992.5 hPa 2.2 m/s 93% 99%
08:00   993.2 hPa 3.2 m/s 90% 100%
10:00   994.1 hPa 3.5 m/s 83% 99%
12:00   994.9 hPa 3.8 m/s 78% 99%
14:00   995.8 hPa 5.6 m/s 74% 93%
16:00   996.0 hPa 4.8 m/s 67% 73%
18:00   997.2 hPa 4.8 m/s 66% 63%
20:00   998.3 hPa 4.1 m/s 66% 90%
Keskiyön aurinko Mercoledi 28.06.2017
03:00   1003.2 hPa 3.5 m/s 86% 41%
09:00   1007.0 hPa 4.3 m/s 72% 84%
15:00   1010.2 hPa 3.5 m/s 54% 67%
21:00   1012.4 hPa 1.7 m/s 65% 84%
Keskiyön aurinko Giovedi 29.06.2017
03:00   1015.2 hPa 1.6 m/s 90% 46%
09:00   1016.2 hPa 1.8 m/s 56% 34%
15:00   1015.5 hPa 2.6 m/s 44% 94%
21:00   1014.1 hPa 1.1 m/s 62% 2%
Keskiyön aurinko Venerdi 30.06.2017
03:00   1014.3 hPa 2.4 m/s 82% 23%
09:00   1013.0 hPa 1.7 m/s 64% 100%
15:00   1010.7 hPa 2.5 m/s 39% 98%
21:00   1008.5 hPa 3.0 m/s 53% 70%
Keskiyön aurinko Sabato 01.07.2017
03:00   1007.2 hPa 3.4 m/s 76% 68%
09:00   1005.4 hPa 3.9 m/s 61% 46%
15:00   1004.5 hPa 4.2 m/s 45% 70%
21:00   1005.4 hPa 3.7 m/s 53% 44%
Keskiyön aurinko Domenica 02.07.2017
03:00   1007.6 hPa 3.1 m/s 80% 15%
09:00   1008.0 hPa 3.5 m/s 64% 33%
15:00   1008.2 hPa 3.0 m/s 54% 99%
21:00   1008.1 hPa 2.9 m/s 58% 84%
Keskiyön aurinko Lunedi 03.07.2017
03:00   1008.9 hPa 3.3 m/s 63% 96%
09:00   1008.4 hPa 4.0 m/s 59% 98%
15:00   1006.6 hPa 5.4 m/s 42% 100%
21:00   1005.8 hPa 4.2 m/s 48% 100%
Keskiyön aurinko Martedi 04.07.2017
03:00   1006.7 hPa 3.8 m/s 63% 44%
09:00   1006.9 hPa 4.6 m/s 56% 39%
15:00   1006.8 hPa 4.8 m/s 37% 1%